Location: Unspecified
(0.0000°N, 0.0000°E)
Time: 01:16:27
(UTC+00:00)

CUTE-I - Pass Details

Date: 16 December 2017
Orbit: 812 x 824 km, 98.7° (Epoch: 21 July)

Event Time Altitude Azimuth Distance (km) Brightness Sun altitude
Rises 04:47:26 0° 52° (NE) 3,321 ? -15.6°
Reaches altitude 10° 04:51:33 10° 84° (E) 2,393 ? -14.7°
Maximum altitude 04:53:17 12° 103° (ESE) 2,286 ? -14.3°
Drops below altitude 10° 04:55:00 10° 123° (ESE) 2,396 ? -13.9°
Sets 04:59:07 0° 154° (SSE) 3,332 ? -12.9°
